Location: London
(51.5074°N, 0.1278°W)
Time: 06:45:43
(UTC+00:00)

TIGRISAT - Pass Details

Date: 11 October 2020
Orbit: 606 x 688 km, 97.7° (Epoch: 30 October)

Event Time Altitude Azimuth Distance (km) Brightness Sun altitude
Rises 20:54:57 0° 16° (NNE) 3,025 ? -25.3°
Reaches altitude 10° 20:57:13 10° 20° (NNE) 2,118 ? -25.7°
Enters shadow 20:58:07 16° 23° (NNE) 1,762 ? -25.8°
